Temp
43 45 46 46 46 47 47 47 47 47 46 46 46 47 48 49 49 45 39 41 41 34 37 41 42 36 36 36 34 35 35 35 32 27 27 27 28 30 28 29 23 24 22 22 21 16 19 34 34 29 31 34 33 33
45 44 45 46 46 46 46 46 46 46 47 48 49 49 49 49 49 47 40 42 43 38 38 41 41 41 45 43 36 35 35 32 32 26 25 28 28 28 28 24 29 23 27 27 27 29 31 36 32 34 34 32 33 34
45 45 45 45 46 47 47 47 48 48 48 49 49 49 49 49 49 46 41 40 45 38 39 38 38 43 45 43 45 36 35 36 34 36 29 30 28 31 25 27 28 29 35 29 28 31 33 33 36 36 35 34 35 35
45 45 45 45 46 47 47 47 47 48 48 49 49 48 48 49 49 45 39 39 41 36 30 35 45 40 45 44 42 42 38 37 36 37 31 30 29 34 30 32 31 32 34 31 29 31 33 33 35 35 35 34 34 33
45 45 46 46 46 47 47 47 47 48 48 48 48 48 48 48 47 44 39 38 40 39 30 33 40 42 42 42 40 41 40 37 36 34 31 29 32 33 32 33 29 34 32 29 29 32 32 32 33 36 34 32 31 30
45 45 46 46 46 47 47 47 47 47 47 48 48 48 47 47 44 40 34 42 40 43 33 28 36 38 40 40 38 38 38 36 35 34 31 34 35 34 28 27 35 35 36 36 35 36 35 34 34 35 32 31 30 29
45 45 46 46 46 46 46 46 47 47 47 47 47 47 47 46 41 34 34 40 43 41 32 28 31 37 40 38 36 36 36 35 36 32 32 34 34 35 30 27 35 36 37 37 38 36 32 33 30 31 31 30 30 29
45 46 46 46 46 46 46 46 47 47 47 47 47 47 47 47 43 37 40 43 41 35 34 24 28 34 40 34 32 34 34 34 33 33 33 33 33 32 27 34 35 35 35 34 34 35 33 31 30 28 29 29 27 25
46 45 45 45 46 46 46 46 47 47 47 47 46 45 40 36 33 37 45 41 38 36 26 26 25 24 36 34 35 34 33 28 33 30 31 33 30 26 33 35 34 34 36 32 32 32 32 30 28 27 26 26 24 23
45 45 45 45 46 46 46 46 46 46 46 45 38 32 27 35 44 42 34 30 27 28 31 27 31 27 34 33 31 31 32 28 26 31 32 29 29 33 33 36 36 35 34 34 31 28 29 27 27 25 24 24 23 23
45 45 45 45 46 46 46 46 46 46 44 34 31 33 36 43 35 29 21 23 24 23 30 30 32 29 34 29 29 30 29 28 23 28 27 27 27 29 32 32 33 33 32 31 31 30 30 29 26 25 24 24 23 22
46 46 46 46 46 46 46 46 45 39 36 38 37 38 35 31 24 21 18 24 27 26 29 30 31 33 31 34 29 30 27 27 24 31 26 24 28 29 31 30 30 31 30 29 29 28 27 26 26 25 24 23 21 20
46 46 46 46 46 46 46 46 45 45 42 37 32 25 26 23 16 15 13 20 23 28 29 29 27 31 31 32 27 25 23 23 32 26 26 28 30 31 30 29 28 29 28 27 26 27 26 25 25 24 22 20 18 18
46 45 46 46 46 46 45 46 45 41 35 26 20 14 18 13 21 24 26 27 27 29 30 30 27 30 28 25 23 23 24 27 21 18 24 27 31 31 30 29 28 26 25 24 25 25 23 22 19 16 13 13 13 16
45 44 46 45 46 45 45 45 43 37 33 25 24 12 16 24 29 29 31 31 30 31 31 30 28 29 24 22 25 24 22 19 22 22 26 27 31 29 28 28 27 25 22 21 20 17 15 15 16 15 13 13 14 11
45 44 41 45 45 45 43 41 36 34 30 28 24 25 27 28 28 30 30 29 32 30 31 30 24 21 22 23 22 21 21 19 24 26 28 28 27 27 27 27 26 24 22 19 17 16 15 13 15 16 12 12 9 10
41 36 45 45 44 43 43 34 31 26 25 24 26 26 26 29 27 28 29 30 32 30 26 25 19 21 26 22 21 25 21 26 25 26 26 27 26 26 26 24 22 21 20 18 16 16 16 14 13 17 16 16 14 13
38 42 44 45 41 38 35 31 29 28 23 25 25 24 28 27 27 27 29 30 30 33 32 28 27 23 19 20 21 24 23 25 22 24 25 25 25 24 25 23 20 21 20 17 18 17 16 16 18 18 15 15 15 15
41 43 44 44 40 33 28 29 31 23 25 27 26 25 27 27 28 30 30 31 32 30 31 28 23 24 23 23 24 20 23 26 25 24 21 18 22 22 21 21 20 20 18 18 19 20 19 17 18 18 18 18 17 16
44 43 43 43 41 31 28 28 33 28 23 23 23 23 24 24 25 26 25 28 29 29 27 24 23 24 23 22 21 24 23 23 23 21 20 19 19 20 21 22 22 20 20 19 18 16 19 18 17 17 17 17 18 17
36 38 40 38 31 31 29 27 25 26 25 23 22 23 21 22 20 20 20 25 25 23 22 24 20 17 18 23 25 27 21 25 23 25 23 19 19 22 21 21 22 21 20 19 18 15 14 17 17 16 15 16 14 14
33 38 34 36 29 29 27 28 26 26 25 24 22 22 16 15 16 19 25 22 21 20 20 16 19 24 23 22 22 21 20 21 21 22 20 21 20 20 20 21 20 18 18 17 18 17 17 17 16 15 15 14 10 14
37 36 32 32 25 22 22 26 22 23 19 23 23 19 15 15 18 27 21 22 19 13 13 13 17 21 20 18 19 18 19 23 21 21 21 21 22 21 20 19 20 17 17 16 16 17 17 9 11 14 13 13 13 14
36 30 26 23 22 18 21 21 24 22 25 23 16 15 18 20 21 17 18 14 14 14 19 16 19 20 21 21 21 19 19 21 19 19 21 20 18 16 18 16 16 16 18 18 17 15 14 13 6 13 11 13 11 12
27 23 23 17 20 16 20 20 18 15 14 16 13 10 13 17 10 11 13 15 15 19 20 19 20 20 18 16 16 18 15 22 20 18 16 18 15 15 14 15 15 14 15 16 15 14 11 9 10 11 11 11 13 11
20 19 14 14 14 13 18 14 15 9 13 15 14 13 13 10 10 13 16 15 12 18 18 18 17 16 16 17 17 18 19 20 20 17 15 18 18 17 14 13 14 15 14 15 13 13 12 9 9 11 10 8 0 9
17 12 20 23 21 19 13 16 18 13 13 13 17 9 9 6 9 15 16 15 17 16 16 18 19 20 18 14 13 14 16 17 17 17 16 16 17 18 17 14 13 16 13 12 12 13 13 10 10 9 8 7 6 5
18 15 15 20 14 16 15 17 17 10 13 16 15 9 11 13 17 20 21 17 15 14 16 16 18 18 18 16 14 13 11 11 12 13 13 12 10 9 10 11 11 10 11 10 10 8 10 10 10 9 9 10 6 1
10 11 15 12 7 9 8 13 14 14 15 18 14 11 14 15 13 15 14 14 16 16 14 12 9 11 10 10 10 12 13 14 12 8 7 7 8 11 5 7 8 7 8 10 7 7 8 7 7 7 6 6 1 -1
9 11 8 2 7 9 5 6 5 4 10 11 12 13 13 11 11 11 13 15 14 14 15 14 11 13 11 11 9 9 4 5 10 13 10 7 9 10 6 7 8 5 5 8 9 9 8 7 5 3 3 2 2 3
8 5 4 2 3 -1 2 4 3 4 3 3 0 7 9 5 8 10 13 15 12 9 10 8 7 12 11 10 11 9 9 7 1 5 7 7 7 8 6 5 4 3 5 6 5 5 3 2 2 2 2 0 -5 -4
3 0 3 3 1 1 -0 -2 -4 -2 -2 2 3 -1 3 6 9 12 10 11 12 12 8 11 12 10 13 14 11 13 10 12 5 3 4 5 7 5 4 2 -1 2 4 3 3 2 1 1 0 -0 -1 -3 -5 -7
3 2 0 -0 1 1 3 4 3 2 -1 -2 -0 -2 1 5 10 11 10 13 16 16 12 14 16 14 12 12 10 5 3 5 3 7 5 4 -0 -0 -1 -1 1 3 3 2 0 0 -0 -2 -3 -5 -6 -8 -8 -9
MSLP
994.34 993.53 992.79 992.23 992.46 993.40 994.52 995.75 996.99 998.13 999.77 1001.20 1002.65 1003.99 1005.15 1005.84 1006.06 1006.20 1007.95 1008.05 1007.96 1010.63 1012.23 1012.22 1012.44 1013.22 1013.89 1014.47 1015.53 1016.98 1017.64 1018.46 1019.21 1019.69 1020.17 1020.27 1020.25 1020.60 1020.87 1021.37 1021.96 1022.54 1023.01 1023.27 1023.57 1023.41 1022.91 1022.75 1022.83 1023.19 1023.72 1023.67 1024.00 1024.00
995.22 995.23 994.87 994.67 995.13 995.59 996.41 997.52 998.67 999.96 1001.23 1002.43 1003.54 1004.43 1005.09 1005.33 1005.84 1006.37 1007.76 1008.23 1008.26 1009.89 1012.94 1013.04 1013.25 1013.45 1013.27 1013.73 1015.16 1016.75 1017.31 1017.93 1018.68 1019.71 1020.49 1020.58 1020.65 1020.82 1020.97 1021.51 1022.14 1022.49 1022.40 1022.43 1022.76 1022.43 1022.60 1022.79 1023.23 1023.64 1023.92 1024.10 1024.29 1024.42
996.37 996.37 996.45 996.67 996.97 997.34 998.13 999.00 999.94 1001.01 1001.90 1002.71 1003.45 1004.26 1005.09 1005.74 1006.18 1006.32 1007.87 1008.25 1008.57 1011.36 1012.94 1013.36 1014.21 1014.22 1013.89 1014.22 1014.27 1015.70 1017.44 1017.85 1018.55 1018.91 1019.93 1020.45 1020.61 1020.85 1020.95 1021.22 1021.55 1021.93 1021.99 1022.24 1022.52 1022.40 1022.48 1022.97 1023.34 1023.69 1024.04 1024.25 1024.52 1024.87
997.49 997.72 997.95 998.27 998.61 999.10 999.73 1000.30 1000.93 1001.76 1002.57 1003.40 1004.20 1004.90 1005.41 1005.79 1006.14 1006.29 1007.67 1008.91 1009.09 1011.20 1013.81 1015.47 1014.88 1015.16 1015.12 1014.67 1014.70 1015.08 1016.40 1017.84 1018.59 1018.99 1019.63 1020.31 1020.55 1020.77 1020.87 1021.00 1021.18 1021.39 1021.66 1021.97 1022.27 1022.28 1022.68 1023.11 1023.32 1023.68 1024.13 1024.59 1024.94 1025.31
998.51 998.78 999.16 999.50 999.95 1000.48 1000.94 1001.42 1001.97 1002.49 1003.18 1003.87 1004.48 1005.04 1005.47 1005.88 1006.59 1007.16 1008.23 1009.45 1009.42 1010.56 1014.14 1015.86 1015.89 1016.35 1016.07 1015.56 1015.84 1016.29 1016.85 1017.83 1018.62 1019.37 1019.95 1020.56 1020.66 1020.84 1021.10 1021.12 1020.95 1020.89 1020.93 1021.51 1021.49 1021.83 1022.30 1023.03 1023.56 1023.78 1024.35 1025.01 1025.42 1025.73
999.35 999.75 1000.19 1000.64 1001.02 1001.47 1001.98 1002.49 1002.94 1003.46 1004.04 1004.64 1005.18 1005.65 1006.13 1006.51 1006.93 1006.99 1009.52 1010.09 1010.23 1010.05 1013.16 1016.06 1017.45 1017.36 1017.04 1016.88 1017.16 1017.58 1017.92 1018.41 1019.07 1019.69 1020.45 1020.64 1020.71 1020.72 1020.95 1020.85 1020.18 1020.39 1020.62 1020.90 1021.29 1021.94 1022.52 1023.42 1024.05 1024.46 1024.93 1025.47 1025.91 1026.25
1000.18 1000.71 1001.24 1001.68 1002.16 1002.67 1003.19 1003.54 1003.92 1004.39 1004.94 1005.40 1005.79 1006.22 1006.65 1006.96 1007.60 1009.47 1010.57 1010.78 1010.54 1010.65 1013.39 1016.55 1017.78 1017.91 1017.66 1017.72 1018.42 1018.63 1018.76 1019.27 1019.56 1020.33 1020.55 1020.65 1020.76 1020.76 1020.85 1020.51 1020.08 1020.36 1020.75 1021.23 1021.66 1022.34 1023.38 1023.92 1024.58 1025.31 1025.67 1026.05 1026.40 1026.78
1001.06 1001.57 1002.08 1002.65 1003.22 1003.75 1004.11 1004.43 1004.92 1005.34 1005.81 1006.21 1006.68 1007.11 1007.58 1008.06 1009.14 1010.40 1011.02 1010.74 1010.82 1011.81 1013.50 1016.36 1018.14 1018.25 1018.09 1018.63 1019.26 1019.61 1019.63 1019.94 1020.38 1020.64 1020.92 1020.83 1021.11 1021.06 1020.59 1020.09 1020.41 1020.83 1021.39 1021.93 1022.46 1022.81 1023.37 1024.44 1025.26 1025.87 1026.33 1026.55 1026.82 1027.14
1001.85 1002.39 1002.99 1003.54 1004.10 1004.56 1004.94 1005.28 1005.70 1006.29 1006.76 1007.09 1007.51 1007.80 1008.36 1009.73 1011.15 1011.72 1011.43 1011.35 1011.42 1012.64 1014.40 1015.98 1017.30 1018.36 1018.51 1019.13 1019.47 1019.97 1020.12 1020.54 1021.03 1020.89 1021.03 1021.18 1021.09 1020.71 1020.06 1020.11 1020.61 1021.21 1021.62 1022.45 1023.19 1023.70 1024.31 1024.84 1025.67 1026.27 1026.76 1027.08 1027.26 1027.59
1002.55 1003.19 1003.77 1004.28 1004.78 1005.28 1005.67 1006.19 1006.65 1007.02 1007.36 1007.66 1008.17 1009.20 1011.17 1012.01 1011.74 1011.58 1011.87 1012.31 1013.10 1014.42 1015.02 1016.53 1017.09 1017.88 1018.50 1018.97 1019.70 1020.12 1020.19 1020.73 1020.96 1021.26 1021.28 1021.28 1020.66 1020.52 1020.63 1020.50 1020.97 1021.74 1022.34 1023.00 1023.55 1024.31 1024.84 1025.38 1026.00 1026.59 1027.05 1027.49 1027.78 1028.07
1003.24 1003.90 1004.48 1005.07 1005.53 1006.02 1006.44 1007.01 1007.34 1007.42 1007.57 1008.51 1010.08 1011.39 1012.09 1011.88 1012.08 1012.98 1014.22 1014.74 1015.54 1016.25 1016.35 1017.06 1017.13 1017.53 1018.51 1018.73 1019.57 1020.30 1020.40 1020.73 1021.03 1021.18 1021.23 1021.19 1020.96 1021.19 1021.54 1021.76 1022.13 1022.70 1023.27 1023.85 1024.27 1024.90 1025.39 1025.86 1026.46 1026.96 1027.48 1027.89 1028.20 1028.55
1003.89 1004.58 1005.19 1005.72 1006.28 1006.80 1007.32 1007.77 1007.89 1008.31 1009.18 1009.25 1009.98 1011.55 1012.22 1012.89 1013.80 1014.52 1016.21 1016.12 1015.96 1016.56 1016.92 1017.15 1017.50 1017.73 1018.49 1018.55 1019.51 1020.47 1020.53 1021.00 1020.89 1020.97 1021.24 1021.04 1021.13 1021.71 1022.28 1022.87 1023.40 1023.86 1024.34 1024.90 1025.37 1025.88 1026.38 1026.79 1027.14 1027.49 1027.92 1028.32 1028.70 1029.04
1004.57 1005.27 1005.89 1006.51 1007.12 1007.62 1008.07 1008.41 1008.53 1008.88 1009.32 1009.97 1010.70 1012.57 1013.44 1014.62 1015.13 1015.56 1016.44 1016.52 1016.34 1016.24 1016.63 1016.96 1017.78 1017.86 1018.62 1018.95 1020.07 1020.47 1020.83 1021.12 1020.89 1021.01 1020.90 1020.69 1021.30 1022.07 1022.85 1023.61 1024.25 1024.82 1025.28 1025.74 1026.30 1026.73 1027.13 1027.49 1027.79 1028.16 1028.59 1028.90 1029.19 1029.32
1005.28 1005.96 1006.66 1007.31 1007.90 1008.37 1008.75 1009.05 1009.37 1009.50 1009.79 1011.53 1012.98 1014.66 1015.42 1015.74 1015.58 1015.55 1015.43 1015.45 1015.95 1016.05 1016.31 1016.89 1017.77 1018.06 1018.98 1019.51 1020.46 1020.86 1021.59 1021.23 1021.40 1021.44 1020.92 1021.03 1021.46 1022.24 1023.17 1023.97 1024.59 1025.28 1025.93 1026.44 1026.88 1027.34 1027.78 1028.14 1028.59 1029.06 1029.34 1029.49 1029.54 1029.60
1006.09 1006.85 1007.48 1008.19 1008.66 1009.09 1009.42 1009.72 1009.82 1010.12 1011.37 1013.01 1013.91 1015.86 1016.19 1015.98 1015.69 1015.58 1015.47 1015.59 1016.11 1016.23 1016.35 1017.15 1018.07 1018.51 1019.51 1020.18 1020.64 1021.23 1021.79 1021.56 1021.46 1021.17 1021.06 1021.48 1021.88 1022.71 1023.59 1024.39 1025.10 1025.79 1026.50 1027.04 1027.55 1028.02 1028.46 1028.77 1029.04 1029.42 1029.74 1029.79 1029.85 1029.98
1006.86 1007.66 1008.36 1008.82 1009.33 1009.77 1010.03 1010.23 1010.65 1011.44 1012.89 1014.07 1015.34 1016.17 1016.12 1015.81 1015.84 1015.88 1016.16 1016.45 1016.53 1016.60 1016.80 1017.36 1018.67 1019.35 1020.07 1020.28 1020.74 1021.06 1021.36 1021.44 1021.20 1021.25 1021.54 1022.03 1022.64 1023.27 1024.02 1024.70 1025.47 1026.14 1026.80 1027.44 1028.00 1028.47 1028.84 1029.14 1029.40 1029.76 1030.02 1030.09 1030.10 1030.11
1007.63 1008.35 1008.69 1009.41 1010.06 1010.45 1010.62 1011.27 1012.19 1013.49 1014.67 1015.65 1016.51 1016.56 1016.51 1016.45 1016.63 1016.81 1016.99 1017.13 1016.95 1016.99 1017.88 1018.30 1019.09 1019.92 1020.31 1020.56 1020.91 1021.01 1021.20 1021.15 1021.39 1021.92 1022.39 1022.72 1023.22 1023.90 1024.52 1025.22 1025.93 1026.55 1027.20 1027.76 1028.25 1028.69 1029.07 1029.46 1029.72 1029.78 1029.99 1030.10 1030.15 1030.16
1008.19 1008.82 1009.56 1010.17 1010.51 1011.08 1012.02 1012.56 1013.50 1014.65 1016.11 1016.83 1016.99 1017.47 1017.34 1017.47 1017.62 1017.73 1017.79 1017.70 1017.48 1017.83 1018.10 1018.64 1019.20 1020.01 1020.54 1020.62 1020.97 1020.81 1021.22 1021.85 1022.38 1022.62 1023.07 1023.47 1024.00 1024.56 1025.05 1025.64 1026.28 1026.88 1027.47 1027.96 1028.35 1028.82 1029.23 1029.45 1029.62 1029.84 1030.04 1030.13 1030.12 1030.17
1008.53 1009.38 1010.16 1010.61 1011.02 1012.02 1013.25 1014.10 1014.44 1015.92 1017.14 1017.43 1017.91 1018.13 1018.27 1018.56 1018.66 1018.57 1018.46 1018.26 1018.21 1018.33 1018.64 1019.19 1019.90 1020.51 1020.68 1020.63 1020.63 1021.29 1021.59 1021.86 1022.49 1023.26 1024.00 1024.47 1024.67 1025.07 1025.57 1026.07 1026.61 1027.13 1027.66 1028.18 1028.57 1028.87 1029.18 1029.53 1029.72 1029.95 1030.08 1030.12 1030.10 1030.29
1009.52 1010.26 1010.89 1011.18 1011.48 1012.95 1014.46 1015.21 1015.14 1016.14 1017.56 1018.30 1018.61 1019.10 1019.40 1019.64 1019.81 1019.69 1019.52 1019.34 1019.33 1019.45 1019.86 1020.28 1020.59 1020.64 1020.84 1020.83 1021.04 1021.25 1021.59 1022.13 1022.59 1023.63 1024.60 1025.07 1025.30 1025.51 1025.90 1026.31 1026.87 1027.42 1027.93 1028.42 1028.85 1029.19 1029.42 1029.73 1030.05 1030.15 1030.21 1030.26 1030.19 1030.24
1011.20 1011.80 1011.77 1011.95 1012.96 1013.80 1015.23 1016.05 1016.59 1017.30 1017.95 1018.71 1019.49 1019.72 1020.34 1020.50 1020.59 1020.58 1020.57 1020.58 1020.60 1020.73 1021.02 1020.98 1021.00 1021.19 1021.50 1021.54 1021.77 1021.82 1022.30 1022.36 1022.68 1023.15 1023.85 1024.92 1025.59 1025.88 1026.32 1026.78 1027.16 1027.58 1027.98 1028.54 1028.98 1029.57 1029.80 1029.97 1030.29 1030.42 1030.46 1030.50 1030.53 1030.52
1012.41 1012.53 1013.02 1013.17 1014.15 1015.15 1016.25 1016.89 1017.20 1017.90 1018.45 1019.12 1019.63 1020.18 1020.92 1021.39 1021.39 1021.37 1021.32 1021.41 1021.49 1021.16 1021.37 1021.62 1021.52 1021.59 1021.86 1022.23 1022.47 1022.65 1022.74 1022.90 1023.12 1023.53 1024.04 1024.53 1025.46 1026.05 1026.57 1026.96 1027.40 1027.91 1028.39 1028.84 1029.14 1029.54 1029.95 1030.36 1030.60 1030.59 1030.57 1030.62 1030.66 1030.58
1012.67 1013.13 1013.90 1014.39 1015.32 1016.43 1017.92 1017.69 1018.02 1018.75 1019.32 1019.93 1020.33 1021.03 1021.68 1021.80 1021.77 1021.58 1021.86 1021.86 1021.67 1021.71 1021.89 1022.06 1022.04 1022.02 1022.37 1022.84 1022.97 1023.13 1023.23 1023.27 1023.74 1024.12 1024.53 1025.00 1025.62 1026.21 1026.78 1027.35 1027.69 1028.11 1028.69 1029.23 1029.50 1029.79 1030.12 1030.65 1030.68 1030.81 1030.65 1030.65 1030.59 1030.60
1013.31 1014.21 1015.27 1016.09 1016.75 1018.14 1018.46 1018.63 1018.86 1019.55 1020.07 1020.55 1021.25 1022.03 1022.21 1022.35 1022.35 1022.42 1022.51 1021.91 1021.52 1021.89 1021.87 1022.23 1022.25 1022.52 1022.92 1023.17 1023.38 1023.69 1023.79 1023.94 1024.34 1024.81 1025.12 1025.47 1026.29 1027.08 1027.39 1027.89 1028.30 1028.63 1028.90 1029.21 1029.57 1029.87 1030.17 1030.50 1030.70 1030.80 1030.79 1030.81 1030.85 1030.83
1014.35 1016.12 1016.47 1017.67 1018.12 1018.71 1019.26 1019.54 1019.84 1020.33 1021.09 1021.52 1021.98 1022.34 1022.72 1022.78 1022.99 1023.11 1022.56 1021.48 1021.65 1021.75 1021.87 1022.17 1022.37 1022.48 1022.84 1023.39 1023.99 1024.19 1024.27 1024.20 1024.59 1025.32 1026.03 1026.14 1026.90 1027.65 1028.22 1028.57 1028.88 1029.16 1029.35 1029.39 1029.72 1029.99 1030.30 1030.54 1030.72 1030.85 1030.92 1031.01 1030.99 1031.07
1015.74 1016.88 1017.37 1017.97 1018.60 1018.74 1019.41 1019.95 1020.40 1020.82 1021.25 1021.86 1022.28 1022.62 1022.85 1023.21 1023.29 1022.57 1021.65 1021.36 1021.60 1021.61 1021.73 1021.89 1022.17 1022.67 1023.17 1023.50 1024.00 1024.38 1024.57 1024.70 1025.13 1025.80 1026.57 1026.67 1026.90 1027.24 1028.02 1028.56 1029.05 1029.46 1029.60 1029.65 1029.90 1030.16 1030.38 1030.60 1030.75 1030.89 1031.08 1031.25 1031.30 1031.37
1016.91 1017.64 1017.83 1017.85 1018.08 1018.62 1019.65 1020.15 1020.52 1020.94 1021.48 1021.86 1022.26 1023.02 1023.21 1023.32 1022.61 1021.44 1021.13 1021.28 1021.40 1021.45 1021.54 1021.78 1022.09 1022.47 1022.99 1023.78 1024.45 1024.75 1025.03 1025.25 1025.54 1026.06 1026.58 1027.14 1027.47 1027.65 1027.94 1028.53 1028.98 1029.31 1029.66 1029.96 1030.16 1030.19 1030.41 1030.68 1030.86 1031.09 1031.31 1031.51 1031.77 1031.89
1017.52 1018.12 1018.31 1018.73 1019.04 1019.31 1020.27 1020.75 1021.00 1020.94 1021.14 1021.17 1021.84 1022.76 1022.51 1022.05 1021.16 1020.47 1020.63 1021.03 1021.33 1021.58 1021.83 1022.23 1022.55 1022.79 1023.36 1024.01 1024.54 1025.13 1025.90 1026.30 1026.61 1027.03 1027.49 1028.06 1028.41 1028.49 1028.63 1028.94 1029.27 1029.68 1029.89 1030.23 1030.50 1030.62 1030.75 1030.91 1031.06 1031.32 1031.54 1031.75 1032.08 1032.47
1018.64 1018.86 1019.00 1020.16 1020.22 1020.34 1020.45 1021.03 1021.21 1021.03 1020.89 1021.06 1021.58 1021.53 1021.26 1020.85 1020.81 1020.87 1021.09 1021.23 1021.45 1021.77 1022.21 1022.82 1023.64 1023.80 1024.27 1024.88 1025.32 1025.56 1025.86 1026.21 1026.77 1027.47 1027.81 1028.44 1029.01 1029.36 1029.45 1029.56 1029.89 1030.07 1030.28 1030.65 1030.84 1030.96 1030.96 1031.07 1031.50 1031.92 1032.16 1032.19 1032.61 1032.84
1019.55 1019.52 1020.34 1021.05 1021.76 1022.06 1022.02 1022.07 1022.00 1021.99 1021.67 1021.56 1021.59 1021.63 1021.49 1021.25 1021.06 1021.15 1021.25 1021.45 1021.65 1021.77 1022.02 1022.42 1023.19 1023.55 1024.24 1024.82 1025.68 1026.50 1026.85 1026.89 1026.81 1027.01 1027.59 1028.14 1028.49 1028.81 1029.39 1029.74 1030.10 1030.42 1030.72 1030.64 1030.78 1030.74 1031.00 1031.56 1031.86 1032.53 1032.86 1032.87 1032.94 1032.97
1020.12 1020.33 1021.07 1021.56 1022.12 1022.61 1022.76 1022.82 1022.58 1022.51 1022.59 1022.52 1022.96 1022.85 1022.79 1022.48 1021.34 1020.82 1021.01 1021.10 1021.35 1021.86 1022.32 1022.88 1023.37 1023.51 1023.91 1024.46 1024.99 1025.79 1026.66 1027.09 1027.15 1027.16 1027.26 1027.47 1028.04 1028.77 1029.29 1029.78 1030.29 1030.65 1030.71 1030.81 1031.02 1031.28 1031.66 1032.03 1032.39 1032.73 1033.07 1033.26 1033.43 1033.55
1020.63 1021.37 1021.77 1022.72 1022.95 1023.08 1023.16 1023.63 1023.72 1023.64 1023.75 1023.38 1023.42 1023.51 1023.32 1023.28 1022.55 1021.16 1020.86 1021.05 1021.38 1021.66 1021.94 1022.27 1022.66 1023.18 1023.56 1023.97 1024.55 1024.91 1025.01 1025.78 1026.76 1027.21 1027.49 1027.77 1028.36 1028.93 1029.49 1030.05 1030.69 1030.75 1030.80 1031.15 1031.44 1031.74 1032.08 1032.35 1032.78 1033.18 1033.51 1033.74 1033.91 1034.09
1021.15 1021.37 1021.79 1022.49 1022.72 1022.97 1023.23 1023.46 1023.84 1023.91 1024.00 1024.22 1024.19 1024.30 1024.10 1023.83 1022.83 1021.59 1021.16 1021.07 1020.95 1021.06 1021.59 1021.94 1022.30 1022.85 1023.59 1024.10 1024.70 1025.28 1025.61 1026.13 1026.88 1027.19 1027.70 1028.12 1028.89 1029.49 1029.93 1030.34 1030.64 1030.74 1031.06 1031.58 1032.01 1032.26 1032.53 1032.83 1033.25 1033.63 1033.93 1034.18 1034.39 1034.63
Wind_Speed
15 20 24 28 33 35 35 34 34 34 32 31 29 28 23 18 12 5 2 2 4 5 3 3 4 6 4 3 8 7 4 1 2 4 3 3 3 3 3 4 5 5 6 3 3 2 3 1 2 3 3 3 4 5
19 21 24 26 29 31 32 32 31 30 30 28 26 23 19 15 10 5 4 2 3 8 5 2 7 4 3 6 8 2 3 3 4 5 1 3 3 2 4 4 1 2 4 4 6 2 3 1 2 1 2 2 3 4
20 23 26 26 26 28 30 29 28 26 23 22 20 18 15 14 12 5 5 1 8 7 7 7 7 7 7 5 2 6 0 5 3 1 4 2 4 3 4 3 3 3 5 1 3 2 4 5 4 3 3 3 1 4
19 23 24 25 25 25 25 24 24 23 23 23 21 19 17 17 15 8 6 2 5 6 6 4 3 5 6 4 6 5 9 6 6 2 3 3 3 2 2 2 2 2 8 5 4 4 2 4 5 3 2 5 4 4
19 22 22 23 24 23 22 22 22 22 22 22 21 21 23 25 24 13 6 3 3 7 6 4 1 6 7 8 14 11 10 6 3 3 3 2 2 3 2 1 3 5 6 6 4 4 3 3 3 4 7 4 4 3
20 22 23 22 22 22 21 21 23 24 25 23 20 19 17 13 5 5 7 5 4 2 7 5 1 5 6 10 13 10 5 5 3 3 2 2 1 1 2 3 3 5 4 4 3 6 4 9 7 5 6 5 4 5
22 23 23 22 21 20 21 22 22 23 21 21 22 20 20 19 8 7 4 3 2 3 7 5 3 2 2 5 4 4 5 3 3 2 2 2 1 2 2 3 1 5 6 6 7 10 6 5 4 6 6 5 5 5
20 21 22 23 21 20 20 21 21 22 24 24 22 21 21 20 11 6 6 6 3 6 5 6 3 2 3 3 3 3 2 2 4 2 1 2 2 0 3 4 3 6 8 7 6 6 7 11 8 7 6 4 5 6
22 22 21 21 21 20 20 20 21 21 18 17 15 12 8 8 4 0 6 6 4 5 5 4 6 5 2 3 3 2 2 3 1 2 1 1 2 4 3 3 7 8 4 10 9 10 8 8 7 6 5 5 6 6
23 23 22 21 21 21 20 19 17 16 12 11 7 6 4 2 3 3 7 6 7 5 4 4 1 5 4 3 3 2 1 2 2 2 2 1 3 2 4 1 7 7 10 9 7 5 5 5 4 5 5 5 5 5
24 23 23 22 21 20 18 16 12 8 11 5 4 4 1 3 4 5 4 5 2 5 3 2 2 6 0 4 4 1 2 1 2 2 2 1 2 2 4 8 9 9 9 9 9 9 8 7 5 5 5 4 5 5
24 23 22 21 20 19 17 12 9 6 1 4 7 5 3 4 4 8 3 3 3 3 2 4 3 3 2 2 4 1 3 1 2 4 1 3 1 4 7 8 9 9 10 10 9 9 8 7 5 5 4 4 4 3
23 22 21 21 19 19 14 9 14 17 5 3 6 6 4 4 8 6 3 0 3 3 3 3 3 3 2 3 5 2 3 2 3 1 3 0 4 6 8 8 8 8 9 10 9 8 8 7 6 5 4 3 1 3
23 22 21 21 19 16 12 15 8 5 5 5 5 6 4 4 3 1 2 3 2 4 6 5 4 3 1 4 2 5 1 1 2 1 4 2 6 8 8 7 8 8 7 6 7 7 6 6 5 4 4 2 2 4
23 21 20 20 18 15 14 10 9 4 4 5 5 4 4 2 3 3 3 4 3 2 3 4 4 3 3 5 1 4 3 2 4 4 2 3 6 9 8 7 7 7 6 6 4 4 4 4 4 3 3 3 4 3
25 18 6 20 18 15 10 7 6 3 4 4 6 4 1 3 4 5 6 4 3 2 2 4 4 4 2 4 3 3 6 5 3 2 2 5 7 8 9 7 6 6 6 5 4 4 4 3 3 3 1 3 3 3
13 1 22 19 16 15 14 5 4 7 5 4 3 3 2 5 4 3 2 2 2 3 3 2 5 3 3 2 2 3 4 3 2 2 2 4 7 8 7 7 6 6 6 5 4 3 3 3 3 2 4 4 3 4
4 19 25 20 8 6 4 4 4 5 6 4 3 2 3 4 3 3 2 3 2 3 2 3 4 3 4 4 2 3 2 3 1 4 4 4 6 6 6 8 5 6 6 4 4 4 4 3 3 2 2 3 1 3
17 17 21 15 7 5 4 5 4 5 4 2 3 2 3 3 3 3 3 4 3 1 4 2 3 2 3 3 3 2 4 4 4 3 3 2 4 6 6 6 6 5 5 5 4 4 3 3 3 2 2 1 2 2
24 21 16 11 6 4 4 3 2 4 3 1 2 3 3 3 2 2 4 4 3 2 2 2 4 3 3 1 2 1 3 5 7 6 3 2 3 5 6 6 4 6 6 6 5 3 3 3 2 2 1 1 1 2
10 5 11 6 4 5 4 2 4 3 3 4 1 2 2 2 3 3 2 2 2 1 2 3 2 1 3 2 0 1 4 6 4 4 5 5 4 5 5 4 6 5 4 4 4 3 2 3 2 1 1 1 1 1
3 7 3 3 4 4 4 3 3 2 3 2 3 2 3 2 2 1 1 1 2 3 2 2 2 3 3 2 1 1 4 5 5 5 7 11 7 6 5 5 5 4 4 4 3 3 2 1 1 1 2 2 1 1
7 4 3 4 6 6 1 2 4 3 4 2 2 3 3 2 0 0 2 2 3 1 2 1 1 2 4 3 3 4 3 5 4 5 6 6 6 5 6 4 4 6 5 3 2 3 2 1 1 2 2 2 2 1
4 4 4 3 4 3 2 3 3 3 3 2 2 2 1 0 2 2 4 4 2 1 3 3 4 5 4 4 3 2 2 4 6 6 5 7 7 4 4 4 3 3 2 3 2 2 1 2 1 1 2 2 3 3
4 4 4 4 2 5 4 3 2 4 3 2 3 1 2 1 1 2 4 4 1 3 3 4 4 2 4 2 2 2 0 5 7 7 2 5 8 6 5 4 3 3 2 3 2 2 2 1 1 1 2 2 3 4
4 2 4 5 2 5 5 5 4 5 4 3 3 1 2 3 1 7 4 2 3 4 5 6 6 4 2 2 5 4 3 3 6 5 3 5 6 7 6 6 4 2 1 2 3 3 2 2 2 3 2 2 2 3
2 3 1 1 3 4 4 3 3 4 4 6 5 3 3 2 6 5 2 2 2 2 3 4 5 4 5 4 3 4 4 4 3 4 5 4 2 3 4 5 5 3 4 4 3 3 3 3 3 3 3 2 2 3
2 3 6 2 3 1 6 4 5 5 4 3 6 5 8 9 6 3 3 2 2 2 4 3 2 2 5 5 6 7 7 7 8 8 7 7 5 4 4 4 4 6 4 3 4 3 2 3 3 3 3 3 2 2
1 2 3 3 2 2 2 5 6 3 1 5 6 4 5 3 2 2 2 2 3 4 5 5 3 4 6 6 4 4 7 8 8 6 5 4 2 2 2 3 3 3 3 3 3 3 4 2 3 3 4 4 3 2
2 1 5 2 4 4 3 2 2 3 1 1 1 2 2 2 2 2 3 4 6 6 5 5 7 6 7 8 6 4 1 0 1 4 6 6 6 4 5 4 4 3 2 3 4 5 6 5 4 3 2 3 2 2
1 3 4 3 2 3 2 2 2 2 4 2 2 2 2 4 4 3 4 4 3 5 6 5 4 4 8 8 8 8 5 4 3 4 3 4 6 7 6 4 3 3 3 4 4 3 3 2 2 3 3 3 4 4
3 3 4 2 1 3 3 3 1 1 3 2 2 2 3 3 4 2 1 4 5 6 5 7 8 7 5 4 4 3 4 7 6 5 7 5 6 6 6 5 4 4 5 5 4 4 3 4 4 3 3 3 4 4
3 2 2 3 3 4 3 3 4 4 3 2 3 1 2 3 6 2 2 2 4 5 6 6 4 6 7 8 7 4 4 5 8 8 8 9 9 7 5 4 4 5 6 5 4 3 4 5 3 3 3 3 3 4
Wind_Direction
96 86 68 84 100 106 107 110 113 116 121 126 133 143 166 163 153 85 91 9 105 92 53 46 119 132 98 122 145 158 114 41 85 91 141 156 136 155 127 133 169 169 161 168 124 193 273 193 250 286 24 335 338 349
114 114 103 99 100 105 109 114 117 124 132 141 144 146 150 143 131 119 85 356 52 80 104 69 79 39 151 153 128 62 120 133 141 103 166 129 131 132 140 178 133 188 199 173 199 219 121 119 183 202 285 318 333 335
100 102 103 102 104 106 113 118 120 122 123 125 126 128 138 150 153 126 121 84 84 104 67 47 28 358 29 44 129 115 132 131 122 121 144 112 116 163 159 204 151 199 188 196 330 128 204 189 193 194 213 235 50 44
109 111 107 109 107 108 110 109 110 116 120 123 124 126 128 123 106 92 92 352 74 104 91 30 347 29 345 33 59 80 115 82 102 102 88 107 116 222 156 120 207 190 154 189 252 249 183 200 199 183 168 102 78 67
123 118 113 108 109 108 106 104 108 110 111 112 113 112 109 103 101 92 90 38 59 108 131 124 132 16 21 61 72 73 95 102 83 74 67 95 112 143 89 158 230 194 172 179 213 181 132 136 108 89 119 102 71 38
130 122 116 111 110 108 104 101 104 106 104 102 103 107 106 110 107 65 50 357 10 86 113 81 328 21 28 59 60 58 60 66 71 93 95 101 110 114 143 221 244 190 174 174 153 147 102 115 91 96 99 77 71 56
126 127 122 117 113 111 107 104 104 103 97 93 92 91 89 81 68 67 145 178 357 61 91 96 87 349 21 46 38 39 36 60 70 99 79 117 113 142 158 225 146 158 136 112 125 120 121 161 124 84 85 77 76 65
128 125 121 120 118 114 109 106 105 106 106 101 95 90 86 87 79 37 5 36 78 83 74 104 95 99 360 66 80 357 68 37 25 94 96 109 124 81 243 218 128 130 118 94 84 64 90 116 107 89 74 67 64 37
131 130 126 124 123 118 114 110 111 115 113 108 100 82 58 40 52 243 327 40 46 97 110 97 132 151 86 87 91 49 41 74 353 80 89 170 145 227 237 176 170 165 164 136 110 105 113 109 111 94 80 60 53 29
129 126 127 127 126 121 118 118 111 105 102 95 52 48 50 26 312 3 7 27 22 352 35 82 130 111 120 131 103 126 9 97 111 86 108 217 259 358 357 55 131 136 127 134 121 136 136 120 109 95 81 75 56 37
131 128 127 127 124 122 119 116 106 83 44 45 58 60 207 318 53 35 53 62 339 47 31 87 81 119 92 120 120 58 136 66 107 115 205 228 255 56 71 89 87 91 91 78 92 91 81 100 112 113 100 80 58 41
133 130 128 124 123 120 114 102 55 56 68 131 110 102 62 38 46 78 27 358 39 123 133 112 124 113 116 113 101 152 100 168 126 138 174 244 185 135 122 103 91 95 102 100 98 101 97 92 89 96 87 77 63 43
132 132 130 127 124 119 111 85 96 108 82 51 54 58 46 330 51 98 148 51 126 161 158 140 103 110 114 75 76 102 99 139 118 166 244 196 138 145 136 126 113 109 109 106 102 100 102 96 77 67 75 55 3 30
127 125 130 126 125 118 99 113 81 49 63 64 75 42 64 347 56 98 101 112 97 118 120 106 81 85 86 65 119 94 81 132 95 213 235 164 169 158 146 144 138 133 121 115 117 115 106 103 93 79 56 32 15 22
124 124 131 127 125 109 104 79 46 49 75 74 61 72 52 219 108 102 97 100 49 105 104 96 69 73 46 96 37 112 99 172 201 226 227 180 144 148 146 151 138 137 139 134 127 118 123 116 104 80 34 32 45 56
132 122 112 130 112 105 84 55 34 55 50 57 51 99 330 88 78 79 87 92 34 63 65 45 94 62 60 121 111 175 145 210 233 206 154 142 141 135 143 140 152 142 140 135 134 144 143 144 119 81 77 41 31 23
90 20 145 127 101 69 45 68 46 48 81 54 60 38 69 66 62 58 53 66 13 67 73 105 77 172 117 79 130 177 194 206 160 161 145 143 150 146 135 130 129 136 143 140 133 135 120 121 128 108 60 20 21 28
105 130 135 139 115 59 35 42 78 73 69 33 75 16 54 28 72 59 45 0 67 87 98 75 125 115 148 154 225 218 153 104 107 136 130 125 129 126 137 140 142 144 138 132 124 123 126 134 106 79 56 11 48 39
132 134 132 128 102 87 60 19 42 84 63 81 89 31 51 63 29 39 40 34 64 90 105 75 88 164 220 211 186 163 177 166 155 128 100 74 122 127 123 118 132 138 136 134 143 133 120 91 83 104 89 40 45 29
123 101 84 63 58 82 74 22 32 82 84 109 62 55 65 54 16 38 33 17 36 27 75 146 205 210 191 209 199 146 160 149 132 121 119 122 145 138 140 141 137 135 128 118 109 112 121 109 85 64 51 27 26 53
64 53 36 40 45 61 79 44 53 67 108 73 134 63 71 32 38 27 32 357 59 173 228 220 220 221 212 62 36 83 149 154 155 150 163 158 165 138 129 124 129 129 130 134 124 104 93 86 70 38 15 9 355 323
81 79 70 15 74 58 68 12 96 93 66 120 65 59 60 50 36 9 347 16 238 243 197 171 192 161 148 137 142 185 152 121 114 106 92 120 144 147 149 148 139 130 124 125 122 123 122 108 90 63 9 19 15 76
82 52 41 33 69 53 13 26 72 31 85 90 51 57 15 50 160 305 278 248 266 233 169 154 175 51 114 136 123 84 87 124 121 121 121 116 119 119 122 124 134 134 134 141 150 149 142 151 112 84 57 53 23 47
46 59 76 70 74 93 26 38 78 84 98 113 82 82 178 193 31 36 261 255 246 223 170 163 156 122 112 116 125 118 94 115 112 102 116 124 121 102 111 114 111 98 93 122 136 134 114 101 86 100 53 74 47 32
68 37 79 57 28 94 116 105 80 73 114 163 110 213 220 103 89 233 238 265 248 203 163 157 169 150 138 117 134 131 88 142 134 128 76 115 116 113 101 94 93 93 144 131 114 90 90 163 136 111 113 88 57 23
73 15 110 170 156 119 152 130 167 159 123 133 187 97 62 93 85 246 238 224 216 188 180 182 164 146 146 151 155 158 152 136 119 119 151 158 150 147 151 151 150 147 100 114 137 131 103 98 142 138 134 113 83 25
165 236 160 222 117 113 77 80 102 117 151 156 166 144 101 173 238 250 260 214 214 213 195 159 166 165 153 146 108 100 100 91 99 115 113 116 110 142 150 160 179 159 149 149 135 121 120 125 122 120 116 107 66 41
182 155 147 168 83 45 125 136 157 177 180 174 119 172 185 197 225 210 180 155 182 137 116 95 91 128 132 133 128 121 97 102 96 99 97 74 55 53 84 94 92 119 124 126 121 123 119 129 125 137 124 105 86 56
137 280 101 73 36 43 141 156 198 223 173 152 161 207 230 228 223 183 206 170 134 133 128 127 84 94 87 82 74 104 137 144 132 129 128 137 146 151 118 114 110 107 131 135 152 148 129 123 127 114 111 98 90 78
255 46 92 79 127 202 239 171 213 251 346 114 53 4 322 289 251 193 152 156 169 188 175 153 149 152 151 150 145 141 78 128 167 140 158 181 197 153 158 147 138 130 133 136 127 96 94 93 95 82 77 72 49 46
125 71 70 61 152 245 235 300 317 44 26 33 327 156 249 312 298 227 202 184 143 135 136 145 151 162 151 152 161 157 183 200 187 138 113 122 133 147 151 149 134 136 134 127 129 124 122 92 87 92 78 69 52 31
42 98 121 110 284 292 35 70 75 72 332 20 332 2 353 11 275 262 195 144 159 175 181 165 167 185 180 143 126 123 157 144 163 167 156 140 135 137 137 130 127 132 122 116 114 109 104 111 105 89 80 54 34 20
72 70 89 87 30 12 327 68 14 348 3 349 287 232 242 209 247 294 345 294 233 188 174 177 157 132 147 145 138 124 101 105 123 131 122 118 125 132 127 125 132 129 119 115 114 114 116 114 103 97 75 39 21 11